Lid_Strength_Index
10 12 15 14 9 8 8 8 8 9 8 8 8 4 5 4 1 0 0 -0 -0 -1 -1 -1 -1 -1 -1 -1 -1 -1 -1 -1
11 12 10 10 7 7 8 9 8 8 8 7 5 4 3 2 0 1 0 -0 -1 -1 -1 -1 -1 -1 -1 -1 -1 -1 -1 -1
12 11 9 7 6 7 8 8 9 9 8 8 4 3 3 3 2 1 1 0 -0 -1 -1 -1 -1 -2 -1 -1 -1 -1 -1 -1
13 11 8 7 7 6 8 8 9 8 8 8 5 4 4 4 2 0 1 0 -0 -1 -1 -2 -2 -2 -2 -1 -1 -1 -1 -1
11 10 9 7 6 7 7 7 9 7 8 7 6 4 4 4 2 1 0 0 0 0 -1 -2 -2 -2 -2 -2 -2 -2 -2 -1
10 11 10 7 7 7 7 7 6 6 8 8 6 4 4 4 3 3 1 0 1 0 1 1 0 -2 -2 -2 -2 -2 -1 -1
11 10 9 7 9 7 5 7 6 6 6 4 4 4 5 5 5 5 3 3 2 1 1 1 1 -0 -2 -1 -2 -1 -1 -1
7 7 8 7 8 8 7 7 6 6 4 4 4 5 5 5 5 5 4 4 2 1 2 2 0 2 1 0 1 1 1 1
7 6 6 6 7 7 8 9 7 7 6 5 5 5 5 5 6 5 4 2 2 2 2 2 2 2 3 2 2 2 1 1
6 5 6 7 5 7 7 7 5 5 4 5 5 5 5 6 5 5 3 2 2 2 2 2 2 2 2 1 2 2 1 1
5 6 6 6 7 7 7 6 5 5 5 5 5 5 5 6 5 4 3 3 2 2 2 2 2 2 2 2 1 2 2 2
5 6 6 7 7 7 6 5 6 5 6 5 6 6 6 5 5 4 3 3 3 2 2 2 2 2 2 2 1 1 2 1
8 7 8 6 9 8 6 6 7 7 6 6 6 6 5 4 4 4 3 3 3 3 2 2 2 2 2 2 2 2 2 1
9 8 7 8 11 7 6 7 7 7 6 7 6 6 5 4 4 4 3 3 2 1 2 2 3 2 2 2 2 2 2 2
11 8 8 9 10 7 6 7 7 7 7 6 7 7 5 4 4 4 3 3 3 3 2 2 2 2 2 2 2 2 2 2
12 9 9 9 9 8 6 7 7 7 7 7 7 7 4 3 4 4 4 3 3 2 2 3 2 2 2 2 2 2 1 2
11 8 9 9 9 8 7 8 8 8 7 7 7 5 3 3 3 3 3 3 3 3 3 2 3 3 3 3 3 2 2 1
10 9 10 10 9 8 7 7 7 7 8 8 6 5 4 3 4 4 4 3 3 3 3 3 3 3 3 3 3 3 2 2
12 10 9 10 11 9 7 7 7 7 7 6 6 5 5 4 4 4 4 3 3 3 3 3 3 3 3 3 3 3 2 2
10 11 14 9 15 11 9 9 8 8 8 7 6 5 4 4 5 4 4 3 3 3 3 3 2 3 4 4 4 3 3 3